AAL800 KSJC-KSGU

Flight info

Callsign AAL800
Flight time 1h 8m
Altitude 35000
Route SPTNS1 TECKY NTELL KROST ILC EHK
Aircraft A21N/M-SDE2E3FGHIRWXY/LB1

Departure

Time 2026-04-25 16:48
Airport Norman Y. Mineta San Jose International Airport (KSJC)

Arrival

Time 2026-04-25 17:56
Airport St George Regional Airport (KSGU)
Time Latitude Longitude Altitude Speed Heading
2026-04-25 16:42 37.36256 -121.92397 57 ft 0 kts 139°
2026-04-25 16:42 37.36255 -121.92396 57 ft 0 kts 139°
2026-04-25 16:43 37.36254 -121.92395 57 ft 0 kts 139°
2026-04-25 16:43 37.36251 -121.92393 57 ft 0 kts 139°
2026-04-25 16:43 37.36247 -121.92389 57 ft 0 kts 139°
2026-04-25 16:43 37.36240 -121.92381 57 ft 1 kts 140°
2026-04-25 16:44 37.36223 -121.92362 58 ft 5 kts 140°
2026-04-25 16:44 37.36188 -121.92325 58 ft 6 kts 139°
2026-04-25 16:44 37.36152 -121.92284 58 ft 7 kts 137°
2026-04-25 16:44 37.36113 -121.92239 59 ft 8 kts 137°
2026-04-25 16:45 37.36060 -121.92180 60 ft 11 kts 139°
2026-04-25 16:45 37.35992 -121.92107 60 ft 13 kts 139°
2026-04-25 16:45 37.35911 -121.92020 61 ft 16 kts 139°
2026-04-25 16:45 37.35822 -121.91922 62 ft 17 kts 139°
2026-04-25 16:46 37.35725 -121.91814 63 ft 19 kts 137°
2026-04-25 16:46 37.35619 -121.91696 64 ft 20 kts 139°
2026-04-25 16:46 37.35505 -121.91574 65 ft 21 kts 139°
2026-04-25 16:46 37.35467 -121.91531 66 ft 21 kts 139°
2026-04-25 16:47 37.35280 -121.91483 66 ft 18 kts 236°
2026-04-25 16:47 37.35309 -121.91618 66 ft 18 kts 318°
2026-04-25 16:47 37.35540 -121.91875 64 ft 84 kts 317°
2026-04-25 16:47 37.36177 -121.92568 57 ft 156 kts 318°
2026-04-25 16:48 37.37138 -121.93597 288 ft 194 kts 320°
2026-04-25 16:48 37.38156 -121.94673 1200 ft 195 kts 318°
2026-04-25 16:48 37.39138 -121.95757 2283 ft 187 kts 316°
2026-04-25 16:48 37.40166 -121.96901 2751 ft 208 kts 320°
2026-04-25 16:49 37.41639 -121.97652 2949 ft 246 kts 358°
2026-04-25 16:49 37.43358 -121.97037 3190 ft 264 kts 35°
2026-04-25 16:49 37.44534 -121.95121 3456 ft 267 kts 72°
2026-04-25 16:49 37.44575 -121.92732 3717 ft 267 kts 109°
2026-04-25 16:50 37.43544 -121.90764 3987 ft 265 kts 138°
2026-04-25 16:50 37.42118 -121.89257 4247 ft 265 kts 143°
2026-04-25 16:50 37.40593 -121.87721 4512 ft 266 kts 141°
2026-04-25 16:50 37.39133 -121.86159 4771 ft 267 kts 140°
2026-04-25 16:51 37.37694 -121.84531 5031 ft 268 kts 138°
2026-04-25 16:51 37.36292 -121.82891 5289 ft 269 kts 138°
2026-04-25 16:51 37.34833 -121.81162 5561 ft 269 kts 137°
2026-04-25 16:51 37.33873 -121.80020 5739 ft 268 kts 137°
2026-04-25 16:52 37.31939 -121.77740 6096 ft 269 kts 138°
2026-04-25 16:52 37.30511 -121.76115 6349 ft 269 kts 139°
2026-04-25 16:52 37.29069 -121.74487 6610 ft 270 kts 139°
2026-04-25 16:52 37.27554 -121.72774 6881 ft 272 kts 139°
2026-04-25 16:53 37.24411 -121.69218 7433 ft 275 kts 139°
2026-04-25 16:53 37.22802 -121.67398 7712 ft 277 kts 138°
2026-04-25 16:53 37.21188 -121.65574 7992 ft 278 kts 138°
2026-04-25 16:54 37.19590 -121.63766 8270 ft 278 kts 138°
2026-04-25 16:54 37.17946 -121.61906 8561 ft 279 kts 138°
2026-04-25 16:54 37.16301 -121.60046 8848 ft 279 kts 138°
2026-04-25 16:54 37.14658 -121.58189 9132 ft 280 kts 138°
2026-04-25 16:55 37.13002 -121.56320 9429 ft 282 kts 138°
2026-04-25 16:55 37.11326 -121.54429 9723 ft 284 kts 138°
2026-04-25 16:55 37.09645 -121.52535 10000 ft 287 kts 138°
2026-04-25 16:55 37.07877 -121.50517 10291 ft 307 kts 134°
2026-04-25 16:56 37.06483 -121.47850 10576 ft 330 kts 111°
2026-04-25 16:56 37.05929 -121.44560 10876 ft 349 kts 96°
2026-04-25 16:56 37.05619 -121.41074 11166 ft 354 kts 96°
2026-04-25 16:56 37.05310 -121.37560 11455 ft 356 kts 96°
2026-04-25 16:57 37.04995 -121.34096 11739 ft 357 kts 97°
2026-04-25 16:57 37.04890 -121.32980 11834 ft 358 kts 97°
2026-04-25 16:57 37.04356 -121.27355 12278 ft 360 kts 97°
2026-04-25 16:57 37.04016 -121.23856 12583 ft 362 kts 97°
2026-04-25 16:58 37.03664 -121.20258 12844 ft 364 kts 97°
2026-04-25 16:58 37.03316 -121.16719 13118 ft 365 kts 97°
2026-04-25 16:58 37.02971 -121.13220 13385 ft 367 kts 96°
2026-04-25 16:58 37.02628 -121.09758 13654 ft 368 kts 96°
2026-04-25 16:59 37.02274 -121.06200 13914 ft 370 kts 96°
2026-04-25 16:59 37.01916 -121.02593 14190 ft 372 kts 97°
2026-04-25 16:59 37.01562 -120.99056 14504 ft 376 kts 97°
2026-04-25 16:59 37.01217 -120.95597 15155 ft 379 kts 97°
2026-04-25 17:00 37.00862 -120.92057 15821 ft 383 kts 97°
2026-04-25 17:00 37.00502 -120.88495 16395 ft 388 kts 97°
2026-04-25 17:00 37.00131 -120.84839 16965 ft 393 kts 98°
2026-04-25 17:00 36.99757 -120.81155 17510 ft 398 kts 98°
2026-04-25 17:01 36.99383 -120.77514 18081 ft 402 kts 98°
2026-04-25 17:01 36.98985 -120.73626 18657 ft 406 kts 98°
2026-04-25 17:01 36.98596 -120.69829 19152 ft 411 kts 98°
2026-04-25 17:01 36.98211 -120.66087 19622 ft 416 kts 98°
2026-04-25 17:02 36.97823 -120.62327 20093 ft 420 kts 99°
2026-04-25 17:02 36.97425 -120.58494 20561 ft 425 kts 99°
2026-04-25 17:02 36.97013 -120.54541 21038 ft 429 kts 99°
2026-04-25 17:02 36.96590 -120.50480 21512 ft 433 kts 99°
2026-04-25 17:03 36.96172 -120.46488 21957 ft 437 kts 99°
2026-04-25 17:03 36.95735 -120.42334 22426 ft 441 kts 99°
2026-04-25 17:03 36.95291 -120.38121 22873 ft 445 kts 100°
2026-04-25 17:03 36.94842 -120.33882 23307 ft 448 kts 101°
2026-04-25 17:04 36.94411 -120.29813 23737 ft 451 kts 101°
2026-04-25 17:04 36.93980 -120.25791 24101 ft 455 kts 101°
2026-04-25 17:04 36.93548 -120.21760 24492 ft 458 kts 101°
2026-04-25 17:04 36.93119 -120.17757 24844 ft 461 kts 101°
2026-04-25 17:05 36.92686 -120.13731 25207 ft 464 kts 101°
2026-04-25 17:05 36.91795 -120.05499 25869 ft 470 kts 101°
2026-04-25 17:05 36.91345 -120.01351 26216 ft 472 kts 102°
2026-04-25 17:06 36.90888 -119.97179 26542 ft 475 kts 101°
2026-04-25 17:06 36.90494 -119.92938 26826 ft 480 kts 95°
2026-04-25 17:06 36.90766 -119.88580 27075 ft 489 kts 81°
2026-04-25 17:06 36.91878 -119.84378 27381 ft 494 kts 65°
2026-04-25 17:07 36.93556 -119.80395 27790 ft 494 kts 62°
2026-04-25 17:07 36.95321 -119.76455 28225 ft 493 kts 61°
2026-04-25 17:07 36.97046 -119.72611 28572 ft 493 kts 61°
2026-04-25 17:07 36.98762 -119.68752 28931 ft 494 kts 62°
2026-04-25 17:08 37.00441 -119.64935 29294 ft 493 kts 62°
2026-04-25 17:08 37.02107 -119.61117 29669 ft 493 kts 62°
2026-04-25 17:08 37.03744 -119.57342 30013 ft 492 kts 62°
2026-04-25 17:08 37.05390 -119.53535 30351 ft 492 kts 62°
2026-04-25 17:09 37.07047 -119.49689 30699 ft 492 kts 62°
2026-04-25 17:09 37.08722 -119.45796 31050 ft 491 kts 62°
2026-04-25 17:09 37.10393 -119.41914 31371 ft 491 kts 62°
2026-04-25 17:09 37.12094 -119.37951 31694 ft 491 kts 62°
2026-04-25 17:10 37.13831 -119.33902 32003 ft 491 kts 63°
2026-04-25 17:10 37.15497 -119.30016 32269 ft 492 kts 63°
2026-04-25 17:10 37.17249 -119.25925 32548 ft 492 kts 63°
2026-04-25 17:10 37.19013 -119.21804 32808 ft 492 kts 63°
2026-04-25 17:11 37.20780 -119.17665 33071 ft 493 kts 63°
2026-04-25 17:11 37.22570 -119.13470 33308 ft 493 kts 62°
2026-04-25 17:11 37.24333 -119.09338 33521 ft 494 kts 62°
2026-04-25 17:11 37.26127 -119.05117 33701 ft 496 kts 62°
2026-04-25 17:12 37.27922 -119.00893 33877 ft 497 kts 62°
2026-04-25 17:12 37.29699 -118.96710 34050 ft 498 kts 62°
2026-04-25 17:12 37.31485 -118.92493 34233 ft 499 kts 62°
2026-04-25 17:12 37.33257 -118.88310 34373 ft 501 kts 62°
2026-04-25 17:13 37.35046 -118.84080 34523 ft 502 kts 62°
2026-04-25 17:13 37.35658 -118.82630 34580 ft 502 kts 62°
2026-04-25 17:13 37.38561 -118.75750 34828 ft 503 kts 62°
2026-04-25 17:13 37.40355 -118.71485 34909 ft 505 kts 62°
2026-04-25 17:14 37.43877 -118.63111 34929 ft 506 kts 62°
2026-04-25 17:14 37.47297 -118.54948 34925 ft 506 kts 62°
2026-04-25 17:15 37.50783 -118.46613 34896 ft 507 kts 62°
2026-04-25 17:15 37.54242 -118.38318 34909 ft 506 kts 62°
2026-04-25 17:16 37.57718 -118.29967 34907 ft 506 kts 63°
2026-04-25 17:16 37.61220 -118.21522 34902 ft 506 kts 63°
2026-04-25 17:17 37.64794 -118.12878 34920 ft 506 kts 62°
2026-04-25 17:17 37.68372 -118.04214 34907 ft 506 kts 63°
2026-04-25 17:18 37.71963 -117.95483 34880 ft 507 kts 62°
2026-04-25 17:18 37.75409 -117.87090 34900 ft 506 kts 62°
2026-04-25 17:19 37.78884 -117.78595 34922 ft 506 kts 63°
2026-04-25 17:19 37.82451 -117.69854 34912 ft 507 kts 63°
2026-04-25 17:20 37.86078 -117.60942 34893 ft 507 kts 62°
2026-04-25 17:20 37.89561 -117.52361 34920 ft 507 kts 63°
2026-04-25 17:21 37.93042 -117.43759 34904 ft 507 kts 63°
2026-04-25 17:21 37.96532 -117.35113 34904 ft 506 kts 63°
2026-04-25 17:22 37.99420 -117.27940 34885 ft 506 kts 63°
2026-04-25 17:22 38.03599 -117.17529 34913 ft 507 kts 63°
2026-04-25 17:23 38.07172 -117.08603 34896 ft 507 kts 63°
2026-04-25 17:23 38.10754 -116.99626 34889 ft 507 kts 63°
2026-04-25 17:24 38.14222 -116.90910 34906 ft 508 kts 63°
2026-04-25 17:24 38.17706 -116.82134 34929 ft 508 kts 63°
2026-04-25 17:25 38.21234 -116.73209 34906 ft 508 kts 63°
2026-04-25 17:25 38.24826 -116.64105 34905 ft 508 kts 63°
2026-04-25 17:26 38.28385 -116.55058 34909 ft 508 kts 63°
2026-04-25 17:26 38.31925 -116.46031 34910 ft 508 kts 63°
2026-04-25 17:27 38.35452 -116.37001 34917 ft 509 kts 63°
2026-04-25 17:27 38.37774 -116.31046 34937 ft 509 kts 64°
2026-04-25 17:28 38.40174 -116.23129 34920 ft 508 kts 76°
2026-04-25 17:28 38.41014 -116.18024 34930 ft 507 kts 84°
2026-04-25 17:28 38.41174 -116.07795 34914 ft 502 kts 99°
2026-04-25 17:29 38.40229 -115.97667 34932 ft 500 kts 101°
2026-04-25 17:29 38.39292 -115.87918 34922 ft 500 kts 101°
2026-04-25 17:30 38.38403 -115.78238 34922 ft 502 kts 101°
2026-04-25 17:30 38.37516 -115.68486 34913 ft 501 kts 101°
2026-04-25 17:31 38.36634 -115.58830 34941 ft 502 kts 100°
2026-04-25 17:31 38.35726 -115.49016 34936 ft 502 kts 100°
2026-04-25 17:32 38.34821 -115.39304 34934 ft 501 kts 101°
2026-04-25 17:32 38.33909 -115.29600 34939 ft 500 kts 101°
2026-04-25 17:33 38.33010 -115.20118 34904 ft 500 kts 101°
2026-04-25 17:33 38.32075 -115.10376 34943 ft 501 kts 101°
2026-04-25 17:34 38.31130 -115.00590 34944 ft 501 kts 101°
2026-04-25 17:34 38.30189 -114.90926 34934 ft 500 kts 101°
2026-04-25 17:35 38.29232 -114.81200 34920 ft 501 kts 101°
2026-04-25 17:35 38.28265 -114.71452 34932 ft 500 kts 101°
2026-04-25 17:36 38.27296 -114.61765 34917 ft 502 kts 101°
2026-04-25 17:36 38.26349 -114.52374 34941 ft 502 kts 101°
2026-04-25 17:37 38.25853 -114.47613 34761 ft 502 kts 102°
2026-04-25 17:37 38.25138 -114.42698 34520 ft 496 kts 107°
2026-04-25 17:37 38.24140 -114.37827 34235 ft 490 kts 111°
2026-04-25 17:37 38.22922 -114.33288 33928 ft 484 kts 117°
2026-04-25 17:38 38.21503 -114.28966 33612 ft 479 kts 120°
2026-04-25 17:38 38.20483 -114.26025 33406 ft 480 kts 120°
2026-04-25 17:38 38.18476 -114.20274 33004 ft 481 kts 120°
2026-04-25 17:38 38.16956 -114.15900 32693 ft 481 kts 120°
2026-04-25 17:39 38.15421 -114.11471 32378 ft 481 kts 119°
2026-04-25 17:39 38.13891 -114.07043 32051 ft 482 kts 119°
2026-04-25 17:39 38.12360 -114.02611 31704 ft 482 kts 119°
2026-04-25 17:39 38.10815 -113.98145 31130 ft 484 kts 119°
2026-04-25 17:40 38.09308 -113.93799 30362 ft 485 kts 118°
2026-04-25 17:40 38.07793 -113.89434 29536 ft 487 kts 118°
2026-04-25 17:40 38.06267 -113.85041 28678 ft 489 kts 118°
2026-04-25 17:40 38.04717 -113.80582 27802 ft 490 kts 118°
2026-04-25 17:41 38.03176 -113.76148 27196 ft 485 kts 118°
2026-04-25 17:41 38.01697 -113.71899 26629 ft 480 kts 118°
2026-04-25 17:41 38.00203 -113.67617 26051 ft 476 kts 118°
2026-04-25 17:41 37.98739 -113.63428 25485 ft 472 kts 118°
2026-04-25 17:42 37.97290 -113.59290 24926 ft 467 kts 118°
2026-04-25 17:42 37.95860 -113.55209 24362 ft 463 kts 118°
2026-04-25 17:42 37.94408 -113.51077 23792 ft 459 kts 118°
2026-04-25 17:42 37.92981 -113.47021 23241 ft 455 kts 118°
2026-04-25 17:43 37.91546 -113.42956 22675 ft 453 kts 118°
2026-04-25 17:43 37.90120 -113.38914 22090 ft 450 kts 117°
2026-04-25 17:43 37.88730 -113.34982 21517 ft 448 kts 118°
2026-04-25 17:43 37.87361 -113.31114 20937 ft 446 kts 117°
2026-04-25 17:44 37.85998 -113.27261 20317 ft 442 kts 117°
2026-04-25 17:44 37.84681 -113.23547 19779 ft 439 kts 117°
2026-04-25 17:44 37.83382 -113.19887 19185 ft 437 kts 117°
2026-04-25 17:44 37.82087 -113.16243 18612 ft 434 kts 117°
2026-04-25 17:45 37.80722 -113.12715 17996 ft 428 kts 125°
2026-04-25 17:45 37.80091 -113.11621 17770 ft 424 kts 133°
2026-04-25 17:45 37.75794 -113.08490 16809 ft 398 kts 174°
2026-04-25 17:45 37.73039 -113.08651 16308 ft 385 kts 197°
2026-04-25 17:46 37.70522 -113.09843 16091 ft 370 kts 204°
2026-04-25 17:46 37.68127 -113.11015 16074 ft 346 kts 202°
2026-04-25 17:46 37.65826 -113.12054 16070 ft 323 kts 201°
2026-04-25 17:46 37.63693 -113.12962 16071 ft 303 kts 200°
2026-04-25 17:47 37.61702 -113.13786 16066 ft 287 kts 200°
2026-04-25 17:47 37.59752 -113.14583 16072 ft 276 kts 200°
2026-04-25 17:47 37.57839 -113.15365 15816 ft 273 kts 200°
2026-04-25 17:47 37.55900 -113.16162 15021 ft 283 kts 200°
2026-04-25 17:48 37.51712 -113.17875 13409 ft 295 kts 198°
2026-04-25 17:48 37.49662 -113.18703 12841 ft 295 kts 198°
2026-04-25 17:48 37.47566 -113.19653 12527 ft 287 kts 204°
2026-04-25 17:49 37.45721 -113.20795 12401 ft 275 kts 209°
2026-04-25 17:49 37.44010 -113.22034 12081 ft 271 kts 210°
2026-04-25 17:49 37.42326 -113.23273 11698 ft 266 kts 210°
2026-04-25 17:49 37.40677 -113.24487 11307 ft 263 kts 210°
2026-04-25 17:50 37.39028 -113.25697 10894 ft 261 kts 210°
2026-04-25 17:50 37.37351 -113.26927 10465 ft 259 kts 210°
2026-04-25 17:50 37.35673 -113.28155 10065 ft 256 kts 210°
2026-04-25 17:50 37.34020 -113.29365 9726 ft 253 kts 210°
2026-04-25 17:51 37.32402 -113.30547 9362 ft 252 kts 210°
2026-04-25 17:51 37.30819 -113.31705 8983 ft 252 kts 210°
2026-04-25 17:51 37.29220 -113.32873 8627 ft 250 kts 210°
2026-04-25 17:51 37.27651 -113.34019 8264 ft 249 kts 210°
2026-04-25 17:52 37.26105 -113.35148 7899 ft 248 kts 210°
2026-04-25 17:52 37.25576 -113.35533 7779 ft 248 kts 210°
2026-04-25 17:52 37.22938 -113.37454 7069 ft 251 kts 210°
2026-04-25 17:52 37.21304 -113.38645 6681 ft 250 kts 210°
2026-04-25 17:53 37.19658 -113.39842 6407 ft 244 kts 210°
2026-04-25 17:53 37.18086 -113.40985 6090 ft 243 kts 210°
2026-04-25 17:53 37.16478 -113.42149 5594 ft 238 kts 210°
2026-04-25 17:53 37.14920 -113.43277 5163 ft 228 kts 210°
2026-04-25 17:54 37.13404 -113.44376 4785 ft 224 kts 210°
2026-04-25 17:54 37.11915 -113.45453 4506 ft 216 kts 210°
2026-04-25 17:54 37.10496 -113.46480 4139 ft 206 kts 210°
2026-04-25 17:54 37.09153 -113.47450 3784 ft 198 kts 210°
2026-04-25 17:55 37.07861 -113.48384 3517 ft 183 kts 210°
2026-04-25 17:55 37.06701 -113.49225 3277 ft 165 kts 211°
2026-04-25 17:55 37.05692 -113.49927 3051 ft 153 kts 206°
2026-04-25 17:55 37.04680 -113.50481 2894 ft 149 kts 203°
2026-04-25 17:56 37.03757 -113.50971 2873 ft 123 kts 205°
2026-04-25 17:56 37.03095 -113.51324 2853 ft 75 kts 204°
2026-04-25 17:56 37.02755 -113.51505 2841 ft 37 kts 204°
2026-04-25 17:56 37.02533 -113.51619 2835 ft 24 kts 200°
2026-04-25 17:57 37.02429 -113.51524 2834 ft 20 kts 116°
2026-04-25 17:57 37.02446 -113.51394 2836 ft 16 kts 13°
2026-04-25 17:57 37.02553 -113.51389 2838 ft 14 kts 21°
2026-04-25 17:57 37.02584 -113.51372 2839 ft 13 kts 27°
2026-04-25 17:58 37.02717 -113.51297 2842 ft 12 kts 23°
2026-04-25 17:58 37.02801 -113.51252 2844 ft 14 kts 23°
2026-04-25 17:58 37.02899 -113.51201 2847 ft 15 kts 23°
2026-04-25 17:58 37.03002 -113.51146 2851 ft 16 kts 23°
2026-04-25 17:59 37.03085 -113.51094 2853 ft 9 kts 52°
2026-04-25 17:59 37.03089 -113.51012 2853 ft 10 kts 109°
2026-04-25 17:59 37.03081 -113.50987 2853 ft 0 kts 113°